Regional Weather Roundup
Issued by NWS Bismarck, ND

Home | Current Version | Previous Version | Text Only | Print | Product List | Glossary On
Versions: 1 2 3 4 5 6 7 8 9 10 11 12 13 14 15 16 17 18 19 20 21 22 23 24 25 26 27 28 29 30 31 32 33 34 35 36 37 38 39 40 41 42 43 44 45 46 47 48 49 50
000
ASUS43 KBIS 081102
RWRBIS

NWR BROADCAST TEXT
NATIONAL WEATHER SERVICE BISMARCK ND
500 AM CST MON FEB 08 2016

NOTE: "FAIR" INDICATES FEW OR NO CLOUDS BELOW 12,000 FEET WITH NO
SIGNIFICANT WEATHER AND/OR OBSTRUCTIONS TO VISIBILITY.


CITY           SKY/WX    TMP DP  RH WIND       PRES   REMARKS
WILLISTON      CLEAR     24  16  71 NW17      30.33S WCI  11
MINOT          CLEAR     25  15  66 NW17G29   30.23R WCI  12
MINOT AFB      CLEAR     22  18  84 NW16      30.23R WCI   9
BISMARCK       CLEAR     28  17  63 NW21G32   30.24R WCI  15
DICKINSON      CLEAR     18  13  80 W15       30.28R WCI   4
GARRISON         N/A     21  17  84 NW17      30.24R WCI   7
HETTINGER ARPT CLEAR     20  14  77 NW13      30.31R WCI   7
JAMESTOWN      CLOUDY    20  13  74 N21       30.12R WCI   4
CARRINGTON     FLURRIES  19  16  86 NW22G32   30.16R WCI   3
HAZEN          FAIR      23  18  80 NW18G28   30.29S WCI   9
LINTON         FAIR      25  19  80 NW23G32   30.22R WCI  10
OAKES          CLOUDY    19  14  79 N30G38    30.10R WCI   0
STANLEY        FAIR      19  19 100 NW14G22   30.28F WCI   6
$$

CITY           SKY/WX    TMP DP  RH WIND       PRES   REMARKS
GRAND FORKS    LGT SNOW  14   8  77 N28G35    30.12R BLWGSNOWWCI  -6
GRAND FORKS AF LGT SNOW  13   8  81 N23G30    30.13R WCI  -6
DEVILS LAKE    FLURRIES  17  12  80 N14       30.15R WCI   3
FARGO          HAZE      14   9  80 N35G44    30.10R VSB 1/4 WCI  -8
GRAFTON        LGT SNOW  12  10  92 N23G31    30.16R WCI  -7
GWINNER        CLOUDY    21  14  73 N23G30    30.10R WCI   5
LANGDON        LGT SNOW  14  10  85 N30G38    30.10R WCI  -7
$$

CITY           SKY/WX    TMP DP  RH WIND       PRES   REMARKS
ABERDEEN       FLURRIES  23  17  78 N18       30.13R WCI   9
MOBRIDGE       CLEAR     27  16  63 NW24G32   30.17R WCI  12
BUFFALO          N/A     23  12  62 NW20      30.26S WCI   8
RAPID CITY     CLEAR     29   9  43 NW29G36   30.31R WCI  14
GLASGOW        CLOUDY    20  14  77 N6        30.40S WCI  12
SIDNEY         CLOUDY    23  14  68 NW15      30.37S WCI  10
WOLF POINT     CLOUDY    22  16  78 SW8       30.41R WCI  12
GLENDIVE       CLOUDY    23  16  74 W9        30.40S WCI  13
MILES CITY     CLOUDY    22  15  75 W10       30.40F WCI  11
BAKER          CLOUDY    20  13  74 W12       30.36S WCI   8
$$

CITY           SKY/WX    TMP DP  RH WIND       PRES   REMARKS
BILLINGS       CLOUDY    27  12  53 SW6       30.40S
GREAT FALLS    CLOUDY    36  21  54 SW15      30.39F
$$




USA.gov is the U.S. government's official web portal to all federal, state and local government web resources and services.